Location: Zagreb
(45.8000°N, 16.0000°E)
Time: 12:56:42
(UTC+02:00)

ISS - Pass Details

Date: 29 September 2021
Orbit: 417 x 423 km, 51.6° (Epoch: 16 October)

Event Time Altitude Azimuth Distance (km) Brightness Sun altitude
Rises 20:11:37 0° 297° (WNW) 2,366 1.6 -16.7°
Reaches altitude 10° 20:13:46 10° 304° (NW) 1,501 0.2 -17.1°
Maximum altitude 20:17:02 45° 19° (NNE) 579 -3.2 -17.6°
Enters shadow 20:17:35 41° 50° (NE) 626 -3.2 -17.7°
